[[{"header":{"parameterUnit":"m.s-1","parameterCategory":1,"la1":30.2991,"la2":30.254,"lo1":-89.0895,"lo2":-89.0444,"dy":0.0017,"dx":0.0017,"nx":28,"ny":28,"refTime":"2023-08-23T03:00:00:Z","depth":0,"parameterNumber":2,"parameterNumberName":"U-component_of_WINDS"},"data":[0,0,0,0,0,0,0,0,0,0,0,0,0,0,0,0,0,0,0,0,0,0,0,0,0,0,0,0,0,0,0,0,0,0,0,0,0,0,0,0,0,0,0,0,0,0,0,0,0,0,0,0,0,0,0,0,0,0,0.0905,0.0905,0,0.0863,0.0863,0.0862,0.084,0.0839,0.0839,0.0839,0.0798,0.0797,0.0796,0,0,0,0,0,0,0,0,0,0,0,0,0,0.0968,0.0967,0.0905,0.0905,0.0904,0.0863,0.0863,0.0862,0.084,0.0839,0.0839,0.0839,0.0799,0.0797,0.0796,0,0,0,0,0,0,0,0,0,0,0,0,0,0.0935,0.0967,0.0906,0.0888,0.0886,0.0863,0.0863,0.0862,0.084,0.0839,0.0839,0.0839,0.0799,0.0798,0.0796,0.0788,0,0,0.0791,0.0791,0,0,0,0,0,0,0,0,0.0937,0.0933,0.0891,0.0889,0.0887,0.0856,0.087,0.0837,0.084,0.0857,0.0839,0.0839,0.0818,0.0815,0.0807,0.0786,0.0784,0.0791,0.079,0.0789,0.0789,0,0,0,0,0,0,0,0.0939,0.0935,0.0889,0.0891,0.0888,0.0883,0.0878,0.0863,0.0839,0.0856,0.0854,0.0849,0.0817,0.0809,0.0806,0.0784,0.0791,0.079,0.0789,0.0788,0.0753,0.0753,0,0,0,0,0,0,0.0944,0.0937,0.089,0.0887,0.0912,0.0882,0.0876,0.0866,0.0839,0.0834,0.0849,0.0848,0.0811,0.0808,0.0804,0.0792,0.0789,0.0788,0.0787,0.0753,0.0753,0.0753,0,0,0,0,0,0,0.0946,0.094,0.0892,0.0911,0.0905,0.0881,0.087,0.0866,0.0857,0.0834,0.0829,0.0845,0.0811,0.0807,0.0792,0.079,0.0787,0.0786,0.0753,0.0753,0.0753,0.0768,0,0,0,0,0,0,0.0948,0.0941,0.0937,0.0912,0.0904,0.0879,0.087,0.0865,0.0854,0.0853,0.0829,0.0825,0.0811,0.0794,0.079,0.0788,0.0785,0.0753,0.0753,0.0753,0.0768,0.0769,0.077,0,0,0,0,0,0.095,0.0944,0.0937,0.0932,0.0899,0.0879,0.0875,0.0858,0.0854,0.0851,0.0835,0.0826,0.0791,0.0793,0.0788,0.0786,0.0753,0.0753,0.0753,0.0767,0.0769,0.077,0,0,0,0,0,0,0.0971,0.094,0.0932,0.0918,0.0901,0.0876,0.087,0.086,0.0845,0.0844,0.0824,0.0819,0.0806,0.0794,0.0797,0.0776,0.0771,0.077,0.0784,0.0785,0.0786,0.0789,0.0783,0,0,0,0,0,0.0974,0.0961,0.0935,0.0924,0.0916,0.0895,0.0886,0.0874,0.0856,0.0849,0.0833,0.0817,0.0802,0.0793,0.0778,0.0766,0.076,0.0762,0.0763,0.0764,0.0763,0.0755,0.0756,0.0753,0.0753,0.0753,0,0,0.0981,0.0962,0.0955,0.0928,0.0914,0.09,0.0889,0.0876,0.0865,0.0847,0.0832,0.0819,0.08,0.0786,0.0779,0.0776,0.0763,0.0764,0.0765,0.0764,0.0755,0.0756,0.0756,0.0753,0.0753,0.0753,0,0,0.0985,0.0969,0.0959,0.0944,0.0922,0.0908,0.0905,0.0881,0.0871,0.0855,0.0841,0.0829,0.0805,0.0791,0.0781,0.0779,0.0769,0.0775,0.078,0.0772,0.0772,0.0772,0.0771,0.0771,0.0774,0.0774,0.0774,0,0.0995,0.0974,0.0955,0.0941,0.093,0.0912,0.0901,0.0888,0.0863,0.0856,0.0853,0.0821,0.0806,0.0789,0.0788,0.0781,0.0777,0.0777,0.0774,0.0774,0.0773,0.0772,0.0772,0.0775,0.0775,0.0775,0.0775,0,0.0988,0.0973,0.0967,0.0942,0.093,0.0918,0.0897,0.0887,0.0877,0.0863,0.0846,0.0828,0.0809,0.0804,0.0794,0.0785,0.0784,0.0777,0.0772,0.0775,0.0773,0.0772,0.0776,0.0776,0.0775,0.0775,0,0,0.1005,0.0968,0.0966,0.0954,0.0928,0.0916,0.0904,0.0884,0.0876,0.0859,0.0847,0.0827,0.082,0.0809,0.0797,0.079,0.0789,0.0784,0.0784,0.0785,0.0777,0.0782,0.0781,0.0782,0.0782,0.0782,0.0778,0,0.1004,0.098,0.0962,0.0944,0.093,0.0912,0.0901,0.0884,0.0871,0.0857,0.0842,0.0827,0.0821,0.0813,0.0806,0.0791,0.0787,0.0791,0.0772,0.0771,0.0777,0.078,0.0785,0.0783,0.0778,0.0778,0.0777,0,0.1001,0.0983,0.0964,0.0938,0.0932,0.0922,0.0902,0.0889,0.087,0.086,0.0847,0.0834,0.082,0.0816,0.0796,0.0799,0.079,0.0782,0.0781,0.0778,0.0774,0.0777,0.0782,0.0781,0.0776,0.0776,0.0777,0,0.1015,0.0986,0.097,0.0961,0.0931,0.0924,0.0911,0.0892,0.0881,0.0863,0.0856,0.0838,0.0828,0.0815,0.0798,0.0796,0.0779,0.0774,0.0771,0.0772,0.0768,0.0769,0.0771,0.0763,0.0763,0.0763,0.0763,0,0.1016,0.1005,0.0976,0.0966,0.0953,0.0932,0.092,0.0906,0.0888,0.0876,0.086,0.0849,0.0827,0.0814,0.08,0.0786,0.0781,0.0774,0.077,0.0775,0.0776,0.0768,0.0768,0.0763,0.0763,0.0763,0.0763,0,0.1029,0.1009,0.099,0.0963,0.0956,0.0947,0.0924,0.0914,0.09,0.0884,0.0879,0.0857,0.0839,0.0821,0.0798,0.0789,0.0775,0.077,0.0781,0.0779,0.0777,0.0777,0.0774,0.0773,0.0767,0.0767,0.0767,0,0.1031,0.1021,0.0993,0.0983,0.097,0.0954,0.0943,0.0922,0.0911,0.0887,0.088,0.0862,0.0846,0.0819,0.0801,0.0783,0.0778,0.0778,0.0775,0.078,0.0777,0.0778,0.0777,0.0779,0.0779,0.0779,0.0779,0,0.1036,0.1027,0.101,0.099,0.0976,0.0959,0.0942,0.0935,0.0911,0.0899,0.0881,0.0868,0.0844,0.0826,0.0806,0.0793,0.0782,0.078,0.0779,0.0783,0.079,0.0785,0.0783,0.0781,0.078,0.078,0.078,0.078,0.1043,0.1034,0.1012,0.0993,0.0978,0.0962,0.0951,0.0934,0.0918,0.0896,0.0886,0.0867,0.0847,0.0819,0.0807,0.0792,0.0789,0.0787,0.0786,0.0786,0.0787,0.0792,0.0789,0.0789,0.0789,0.0789,0.0789,0,0.1047,0.1032,0.1015,0.0991,0.0977,0.0967,0.0947,0.0936,0.0919,0.0901,0.0885,0.0864,0.0846,0.0826,0.0807,0.0799,0.0794,0.0795,0.0795,0.0793,0.0791,0.0794,0.08,0.08,0.08,0.08,0.08,0.08,0.1048,0.1031,0.1018,0.0993,0.0978,0.0959,0.0949,0.0934,0.0919,0.0896,0.088,0.0867,0.0848,0.0828,0.0811,0.0805,0.0799,0.0801,0.0795,0.0794,0.0793,0.0792,0.0795,0.08,0.08,0.0797,0.0797,0.0797]},{"header":{"parameterUnit":"m.s-1","parameterCategory":1,"la1":30.2991,"la2":30.254,"lo1":-89.0895,"lo2":-89.0444,"dy":0.0017,"dx":0.0017,"nx":28,"ny":28,"refTime":"2023-08-23T03:00:00:Z","depth":0,"parameterNumber":3,"parameterNumberName":"V-component_of_WINDS"},"data":[0,0,0,0,0,0,0,0,0,0,0,0,0,0,0,0,0,0,0,0,0,0,0,0,0,0,0,0,0,0,0,0,0,0,0,0,0,0,0,0,0,0,0,0,0,0,0,0,0,0,0,0,0,0,0,0,0,0,1.1669,1.1669,0,1.1608,1.1608,1.1607,1.1569,1.1568,1.1568,1.1568,1.1502,1.1501,1.1499,0,0,0,0,0,0,0,0,0,0,0,0,0,1.1749,1.1748,1.1669,1.1669,1.1668,1.1609,1.1608,1.1607,1.1569,1.1568,1.1568,1.1568,1.1503,1.1501,1.1499,0,0,0,0,0,0,0,0,0,0,0,0,0,1.1704,1.1748,1.167,1.1642,1.1639,1.1609,1.1608,1.1607,1.1569,1.1568,1.1568,1.1568,1.1503,1.1501,1.1499,1.1491,0,0,1.1492,1.1491,0,0,0,0,0,0,0,0,1.1707,1.1701,1.1647,1.1644,1.164,1.1596,1.1612,1.1568,1.1569,1.1595,1.1568,1.1568,1.1534,1.1529,1.1518,1.1488,1.1485,1.1492,1.149,1.1489,1.1489,0,0,0,0,0,0,0,1.171,1.1704,1.1645,1.1646,1.1642,1.1631,1.1624,1.1603,1.1567,1.1593,1.159,1.1583,1.1532,1.152,1.1516,1.1484,1.1492,1.149,1.1488,1.1487,1.1443,1.1443,0,0,0,0,0,0,1.1718,1.1707,1.1647,1.1643,1.1673,1.163,1.1622,1.161,1.1567,1.156,1.1584,1.1582,1.1524,1.1519,1.1514,1.1501,1.1489,1.1487,1.1486,1.1443,1.1443,1.1444,0,0,0,0,0,0,1.172,1.1713,1.165,1.1674,1.1665,1.1629,1.1616,1.1609,1.1598,1.156,1.1553,1.1579,1.1524,1.1517,1.1497,1.1498,1.1486,1.1484,1.1443,1.1443,1.1443,1.1475,0,0,0,0,0,0,1.1722,1.1714,1.1711,1.1674,1.1664,1.1635,1.1616,1.1608,1.1594,1.1591,1.1554,1.1547,1.1523,1.1501,1.1495,1.1494,1.1482,1.1443,1.1443,1.1443,1.1474,1.1477,1.1479,0,0,0,0,0,1.1725,1.1722,1.1711,1.1704,1.166,1.1635,1.1629,1.1602,1.1595,1.1591,1.1567,1.1548,1.1499,1.1499,1.1492,1.1491,1.1442,1.1443,1.1443,1.1473,1.1476,1.1479,0,0,0,0,0,0,1.1759,1.1717,1.1704,1.169,1.1666,1.1629,1.1624,1.1607,1.1585,1.1583,1.1549,1.1541,1.1524,1.1505,1.1506,1.148,1.1468,1.1468,1.1493,1.1496,1.1499,1.1503,1.148,0,0,0,0,0,1.1765,1.1749,1.1713,1.1703,1.1692,1.166,1.1648,1.163,1.1604,1.1593,1.1568,1.1542,1.1521,1.1508,1.1486,1.1471,1.1462,1.1467,1.147,1.1472,1.1471,1.1461,1.1463,1.1445,1.1445,1.1445,0,0,1.1777,1.1752,1.1744,1.1709,1.1689,1.1672,1.1652,1.1635,1.1622,1.159,1.157,1.155,1.152,1.1502,1.1493,1.1486,1.1474,1.1473,1.1475,1.1473,1.1462,1.1464,1.1465,1.1446,1.1446,1.1445,0,0,1.179,1.177,1.1759,1.1739,1.171,1.1688,1.1686,1.165,1.1636,1.1616,1.1591,1.1575,1.1539,1.1518,1.1503,1.1508,1.1489,1.1501,1.1514,1.1505,1.1506,1.1507,1.1508,1.1509,1.1501,1.1501,1.1501,0,1.1808,1.1783,1.1756,1.174,1.1725,1.1697,1.1685,1.1667,1.1631,1.1621,1.1614,1.1568,1.1546,1.1523,1.1524,1.1513,1.1508,1.1505,1.1509,1.1509,1.151,1.151,1.1511,1.1503,1.1502,1.1502,1.1502,0,1.1806,1.1789,1.1784,1.1751,1.1735,1.1722,1.1692,1.1679,1.1662,1.1641,1.162,1.1592,1.1564,1.1557,1.154,1.1531,1.1528,1.1515,1.1502,1.1514,1.1514,1.1514,1.1505,1.1504,1.1504,1.1503,0,0,1.1838,1.1791,1.1789,1.1774,1.1739,1.1724,1.1709,1.1683,1.1672,1.1648,1.1634,1.1604,1.1592,1.1575,1.1555,1.1547,1.1552,1.1535,1.1534,1.1538,1.1539,1.1549,1.155,1.154,1.154,1.154,1.1542,0,1.1845,1.1818,1.1793,1.1774,1.1758,1.173,1.1717,1.1693,1.1673,1.1655,1.1632,1.1612,1.1598,1.1587,1.1578,1.1553,1.1551,1.1553,1.1525,1.1524,1.1533,1.155,1.156,1.1563,1.1542,1.1542,1.1542,0,1.185,1.1828,1.1808,1.1774,1.1766,1.1755,1.1728,1.1712,1.1684,1.167,1.1651,1.163,1.1611,1.1601,1.1574,1.1576,1.1563,1.1549,1.1548,1.1544,1.1533,1.1545,1.1564,1.1564,1.1541,1.1541,1.1541,0,1.1875,1.184,1.1824,1.1811,1.1772,1.1764,1.1747,1.1719,1.1705,1.1681,1.1671,1.1645,1.1631,1.1611,1.1583,1.1578,1.1559,1.1547,1.1546,1.1547,1.1543,1.1543,1.1559,1.1536,1.1536,1.1536,1.1536,0,1.1885,1.1874,1.1835,1.1824,1.181,1.1781,1.1768,1.1748,1.1723,1.1708,1.1682,1.1668,1.1633,1.1614,1.1592,1.1573,1.1566,1.1554,1.1548,1.1556,1.1557,1.1546,1.1545,1.1536,1.1536,1.1536,1.1536,0,1.191,1.1884,1.1864,1.1828,1.1819,1.181,1.1779,1.1767,1.1745,1.1726,1.172,1.1686,1.1662,1.1633,1.16,1.1585,1.1568,1.1559,1.1578,1.1574,1.1575,1.1575,1.1584,1.1583,1.1561,1.1561,1.1561,0,1.1919,1.1909,1.1873,1.1861,1.1845,1.1826,1.1812,1.1782,1.1768,1.1735,1.1727,1.1702,1.168,1.1644,1.1615,1.1589,1.158,1.1584,1.1576,1.1584,1.1579,1.158,1.1578,1.1587,1.1587,1.1587,1.1588,0,1.1936,1.1923,1.1903,1.1879,1.1862,1.1842,1.1819,1.1811,1.1777,1.1761,1.1738,1.1721,1.1687,1.1662,1.1633,1.1614,1.1595,1.1591,1.1589,1.1597,1.1608,1.1601,1.1583,1.1591,1.159,1.159,1.159,1.159,1.1952,1.1942,1.1915,1.1894,1.1874,1.1854,1.1842,1.1819,1.1799,1.177,1.1753,1.173,1.1701,1.166,1.1642,1.1622,1.1615,1.1613,1.1612,1.1612,1.1614,1.1611,1.1616,1.1616,1.1616,1.1616,1.1616,0,1.1967,1.1949,1.1929,1.19,1.1883,1.1867,1.1842,1.1828,1.1808,1.1784,1.1763,1.1735,1.1711,1.1681,1.1654,1.1644,1.1634,1.1638,1.1638,1.1633,1.1622,1.1626,1.1646,1.1646,1.1646,1.1646,1.1646,1.1646,1.1973,1.1956,1.194,1.1912,1.1893,1.1871,1.1857,1.1838,1.1818,1.1789,1.1769,1.175,1.1722,1.1693,1.167,1.1661,1.1652,1.1658,1.1647,1.1637,1.1634,1.1632,1.1635,1.1657,1.1657,1.166,1.166,1.166]}]]